Location: Helsinki
(60.1699°N, 24.9384°E)
Time: 20:51:45
(UTC+03:00)

A-11 Canister half - Pass Details

Date: 03 June 2024
Orbit: 1525 x 1683 km, 47.3° (Epoch: 14 June)

Event Time Altitude Azimuth Distance (km) Brightness Sun altitude
Rises 23:56:33 0° 267° (W) 4,698 11.8 -5.8°
Reaches altitude 10° 23:59:57 10° 258° (WSW) 3,729 11.1 -6.0°
Maximum altitude 00:07:56 33° 200° (SSW) 2,427 9.7 -6.2°
Drops below altitude 10° 00:16:08 10° 141° (SE) 3,823 10.5 -6.5°
Sets 00:19:40 0° 133° (SE) 4,832 11.1 -6.6°
